DECAYED

STARLINK-11439, 62419 (Decayed)

Orbit data source: Space-Track

STARLINK-11439, 62419 was a payload satellite owned by SpaceX/Seattle (US) in LEO that was launched on Mon, 23 Dec 2024 UTC via an FALCON 9 launch vehicle from the Air Force Eastern Test Range (AFETR). Payload-class satellites include a variety of spacecraft equipped with specific instruments for various scientific and technological missions. These include communications satellites like Starlink; space stations such as the ISS; scientific satellites like the Hubble; Earth observation satellites from companies like Planet Labs, Umbra, and HawkEye 360; GPS; miniature CubeSats for education and research; and military/defense satellites.

Not visible in the next 10 days
Identifier
62419, 2024-249L
Orbit
Decayed
Country
Flag of USUS
Related business
Manufacturer
SpaceX/Seattle
Mission
Decayed Commercial Communications
Bus & Motor
STARLINK V2MD, Unknown motor
Mass
960 kg wet, ~910 kg dry
Launch date (UTC)
2024-12-23 (1 year ago)
Launch vehicle
FALCON 9
Launch site
Air Force Eastern Test Range (AFETR)
Object type
Payload
Rocket body
Debris
Shape & HBR
Box + 2 Pan, 18.1 m
Radar Cross Section
36.964 m², Large (>1 m²)

Expand to show TLE details & history
Last TLE update: 4 months ago

TLE from 4 months ago
0 STARLINK-11439
1 62419U 24249L   26044.13330464  .09629201  88214-5  40256-2 0  9999
2 62419  42.9949 312.4903 0008777 195.6526 164.4090 16.21984644 65657
Epoch: 2026-02-13T03:11Z
TLE epoch observation values (Epoch: 2026-02-13T03:11:57.520Z)
Latitude
-0.00004°
Longitude
121.3255°
Altitude
219.507 km
Speed
7.774 km/s
True Right ascension
20h 49m 57s
True Declination
0° 00' 00"
Sunlit
Object was in daylight at epoch
Visualization orbit readout
Latitude
Unknown
Longitude
Unknown
Altitude
Unknown
Speed
Unknown
Apparent Right ascension
Unknown
Apparent Declination
Unknown
Sunlit
N/A
Visualization observer readout
Local Sidereal Time
07:18:22
Azimuth
Unknown
Elevation
Unknown
Doppler factor
Unknown
Orbital elements
Apogee altitude
221.982 km
Perigee altitude
210.406 km
Semi-major axis
6,594.331 km
Eccentricity
0.00088
Inclination
42.9949°
RAAN
312.4903°
Arg. of periapsis
195.6526°
True anomaly
164.436°
Mean anomaly
164.409°
Eccentric anomaly
164.4225°
Mean motion
4.0531 °/min
Orbital period
88.82 mins
BSTAR
0.0040256
Loading maneuver chart data...
Computing Atmospheric mass density...
Loading historical data...
Loading historical data...
Loading historical data...
Loading historical data...
Loading historical data...
Loading historical data...
Loading historical data...

Documentation

Showing up to 5 results
|